Zurück zum Katalog

DELTA 1 DEB

YO

AktivVLEO
NORAD 228·DEBRIS·🇺🇸 United States

Gestartet Feb 8, 1962 von Cape Canaveral Space Force Station

Loading…

Nächste Überflüge (nächste 24 Stunden)

TLE

AktuellSource: Space-Track

Epoche: Sep 6, 2026, 00:59 UTC

1 00228U 62002C   26249.04112559  .00025660  00000-0  33436-3 0  9993
2 00228  48.4278 245.5382 0001349 135.6604 224.4451 15.58452143455697

Verfolge DELTA 1 DEB in Echtzeit mit AllMySat

Download on the App Store